Other Surface Observations
Issued by NWS Charleston, SC

Home | Current Version | Previous Version | Text Only | Print | Product List | Glossary On
Versions: 1 2 3 4 5 6 7 8 9 10 11 12 13 14 15 16 17 18 19 20 21 22 23 24 25 26 27 28 29 30 31 32 33 34 35 36 37 38 39 40 41 42 43 44 45 46 47 48 49 50
000
SXUS52 KCHS 280111
OSOCHS

MARINE OBSERVATIONS
NATIONAL WEATHER SERVICE CHARLESTON SC
800 PM EST MON FEB 27 2017

...DOWNTOWN CHARLESTON AND HARBOR...

CITY           SKY/WX    TMP DP  RH WIND       PRES   REMARKS
WATERFRONT PRK   N/A     64  59  83 NE7       30.31S

...LAKE MOULTRIE...

CITY           SKY/WX    TMP DP  RH WIND       PRES   REMARKS
PINOPOLIS        N/A     64  55  72 VRB3      30.23S

...LAKE AND SUPPLEMENTAL COASTAL OBSERVATIONS...

STATION/POSITION TIME  TEMP    WIND        PRES    WAVE   SWELL
                       AIR SEA DIR/SP/G            HT/PER HT/PER/DIR
                 (UTC) (F)     (DEG/KT/KT) (MB)    (FT/S) (FT/S/D)
FORT PULASKI     0048   64 63   70/ 13/ 15 1025.3F
SAPELO ISLAND    0000   67      20/  4     1025.0
WINYAH BAY       2345   60      70/  7     1028.0
LAKE MURRAY      0020   64     150/  9/ 12 1023.7
ACE BASIN NERRS  2345   65        CALM     1026.0


...C-MAN AND BUOY OBSERVATIONS...

STATION/POSITION TIME  TEMP    WIND        PRES    WAVE   SWELL
                       AIR SEA DIR/SP/G            HT/PER HT/PER/DIR
                 (UTC) (F)     (DEG/KT/KT) (MB)    (FT/S) (FT/S/D)
BUOY 41004       2350   69 69   90/  8/ 10 1026.4    4/ 9   3/ 90/ 9
BUOY 41008       2350   65 63   90/  6/ 10 1024.1    5/ 6   5/110/ 6
FOLLY BEACH CMAN 0000   62      60/ 11/ 13 1027.2F
CAPERS NS BUOY   0008   62 61   70/ 12/ 16 1026.5S
FRIPP NS BUOY    0008   62 62   40/ 10/ 14 1025.5F
5E ST. MARYS GA  0100      64                N/A     4/ 6


STATION/POSITION TIME  TEMP    WIND        PRES    WAVE   SWELL
                       AIR SEA DIR/SP/G            HT/PER HT/PER/DIR
                 (UTC) (F)     (DEG/KT/KT) (MB)    (FT/S) (FT/S/D)
FRYING PAN BUOY  0050   69 70  160/ 10/ 12 1028.5R   3/ 8   3/ 90/ 8
BUOY 41025       2350   67 72  160/ 16/ 17 1029.1    4/ 8   2/ 90/ 8
CAPE LOOKOUT NC  0000   60      50/  8/  9 1028.7F
BUOY 41002       2350   69 70  120/ 12/ 14 1028.6    4/ 8   3/ 70/ 8
BUOY 41010       NOT AVBL
ST AUGUSTINE FL  0000   70 69  150/ 13/ 13 1024.1R

$$




USA.gov is the U.S. government's official web portal to all federal, state and local government web resources and services.